Hourly Data Report for October 02, 2017

All times are specified in Local Standard Time (LST). Add 1 hour to adjust for Daylight Saving Time where and when it is observed.

SUMMERLAND CS
BRITISH COLUMBIA

49°33'45.200" N
119°38'55.300" W
454.20 m
112G8L1
71768
WUS

Download Data

Hourly Data (October 2017)
Hourly Data Report for October 2, 2017
Temp Definition
°C
Dew Point Temp Definition
°C
Rel Hum Definition
%
Wind Dir Definition
10's deg

Wind Spd Definition
km/h
Visibility Definition
km
Stn Press Definition
kPa
Hmdx Definition


Wind Chill Definition


Weather Definition


TIME
00:00 11.0 1.3 51 32 11   96.53     LegendNANA
01:00 10.8 1.4 52 31 9   96.54     LegendNANA
02:00 10.9 1.3 52 32 12   96.55     LegendNANA
03:00 10.6 1.2 52 31 10   96.57     LegendNANA
04:00 10.6 1.1 52 33 9   96.62     LegendNANA
05:00 10.5 0.9 51 32 12   96.65     LegendNANA
06:00 10.2 0.5 51 32 15   96.67     LegendNANA
07:00 9.7 0.3 52 32 11   96.74     LegendNANA
08:00 10.6 1.8 54 33 10   96.78     LegendNANA
09:00 12.3 1.0 46 34 8   96.80     LegendNANA
10:00 13.4 -0.2 39 35 10   96.80     LegendNANA
11:00 13.0 0.4 42 33 16   96.85     LegendNANA
12:00 14.5 -0.8 35 34 14   96.86     LegendNANA
13:00 15.9 -1.6 30 35 12   96.85     LegendNANA
14:00 14.8 -2.0 31 34 11   96.83     LegendNANA
15:00 13.5 0.3 40 2 11   96.92     LegendNANA
16:00 13.1 1.1 44 1 10   96.98     LegendNANA
17:00 11.4 1.7 51 34 8   97.01     LegendNANA
18:00 9.7 1.6 57 28 9   97.05     LegendNANA
19:00 8.3 1.3 61 28 12   97.08     LegendNANA
20:00 7.6 1.0 63 28 10   97.14     LegendNANA
21:00 7.5 0.1 60 29 6   97.16     LegendNANA
22:00 7.3 -1.0 56 28 11   97.20     LegendNANA
23:00 7.2 -1.7 53 28 12   97.24     LegendNANA

Notes on Data Quality.

Legend

  • E = Estimated
  • M = Missing
  • NA = Not Available
  • ‡ = Partner data that is not subject to review by the National Climate Archives
Date modified: